Weather History for Great Bend, KS

Change the Weather History Date:

Friday, February 22, 2013

  Actual Average Record
Temperature  
Mean Temperature 12 °F -  
Max Temperature 21 °F 52 °F 55 °F (2014)
Min Temperature 3 °F 27 °F 24 °F (2014)
Degree Days  
Heating Degree Days 53    
Moisture  
Dew Point 5 °F    
Average Humidity 76    
Maximum Humidity 85    
Minimum Humidity 68    
Precipitation  
Precipitation 0.00 in - - ()
Sea Level Pressure  
Sea Level Pressure 30.02 in    
Wind  
Wind Speed 11 mph (West)    
Max Wind Speed 16 mph    
Max Gust Speed -    
Visibility 10 miles    
Events      
Averages and records for this station are not official NWS values.
T = Trace of Precipitation, MM = Missing Value Source: NWS Daily Summary

Daily Weather History Graph

Daily Weather History Graph

Search for Another Location

Airport:

Trip Planner

Search our weather history database for the weather conditions in past years. The results will help you decide how hot, cold, wet, or windy it might be!

Date:

Astronomy

Feb. 22, 2013 Rise Set
Actual Time 7:16 AM CST 6:21 PM CST
Civil Twilight 6:49 AM CST 6:48 PM CST
Nautical Twilight 6:19 AM CST 7:19 PM CST
Astronomical Twilight 5:48 AM CST 7:49 PM CST
Moon 3:36 PM CST (2/22) 5:01 AM CST (2/22)
Length of Visible Light 11h 58m
Length of Day
11h 04m
Waxing Gibbous, 90% of the Moon is Illuminated
Feb 22
Waxing Gibbous
Feb 25
Full
Mar 4
Last Quarter
Mar 11
New
Mar 19
First Quarter

Hourly Weather History & Observations

Time (CST) Temp. Windchill Dew Point Humidity Pressure Visibility Wind Dir Wind Speed Gust Speed Precip Events Conditions
12:15 AM 12.2 °F -3.1 °F 6.8 °F 79% 29.92 in 10.0 mi WNW 13.8 mph - N/A   Clear
12:55 AM 12.2 °F -3.7 °F 6.8 °F 79% 29.93 in 10.0 mi WNW 15.0 mph - N/A   Clear
1:15 AM 10.4 °F -6.6 °F 5.0 °F 79% 29.92 in 10.0 mi NW 16.1 mph - N/A   Partly Cloudy
1:35 AM 10.4 °F -6.0 °F 5.0 °F 79% 29.92 in 10.0 mi NW 15.0 mph - N/A   Clear
1:55 AM 10.4 °F -5.4 °F 3.2 °F 73% 29.93 in 10.0 mi WNW 13.8 mph - N/A   Clear
2:15 AM 10.4 °F -6.0 °F 3.2 °F 73% 29.94 in 10.0 mi WNW 15.0 mph - N/A   Clear
2:35 AM 8.6 °F -7.7 °F 3.2 °F 79% 29.94 in 10.0 mi WNW 13.8 mph - N/A   Clear
2:55 AM 10.4 °F -4.8 °F 5.0 °F 79% 29.95 in 10.0 mi WNW 12.7 mph - N/A   Clear
3:15 AM 8.6 °F -7.0 °F 3.2 °F 79% 29.95 in 10.0 mi WNW 12.7 mph - N/A   Clear
3:35 AM 8.6 °F -7.0 °F 3.2 °F 79% 29.96 in 10.0 mi WNW 12.7 mph - N/A   Clear
3:55 AM 8.6 °F -6.3 °F 1.4 °F 73% 29.96 in 10.0 mi WNW 11.5 mph - N/A   Clear
4:15 AM 8.6 °F -7.0 °F 3.2 °F 79% 29.96 in 10.0 mi WNW 12.7 mph - N/A   Clear
4:35 AM 8.6 °F -7.0 °F 3.2 °F 79% 29.95 in 10.0 mi NW 12.7 mph - N/A   Clear
4:55 AM 8.6 °F -6.3 °F 3.2 °F 79% 29.95 in 10.0 mi WNW 11.5 mph - N/A   Clear
5:15 AM 8.6 °F -7.0 °F 3.2 °F 79% 29.96 in 10.0 mi NW 12.7 mph - N/A   Clear
5:35 AM 8.6 °F -7.7 °F 1.4 °F 73% 29.96 in 10.0 mi NW 13.8 mph - N/A   Clear
5:55 AM 8.6 °F -7.0 °F 1.4 °F 73% 29.96 in 10.0 mi NW 12.7 mph - N/A   Clear
6:15 AM 6.8 °F -8.6 °F 1.4 °F 79% 29.98 in 10.0 mi NW 11.5 mph - N/A   Clear
6:35 AM 6.8 °F -6.9 °F 1.4 °F 79% 29.99 in 10.0 mi NW 9.2 mph - N/A   Clear
6:55 AM 6.8 °F -3.5 °F 1.4 °F 79% 29.99 in 10.0 mi WNW 5.8 mph - N/A   Clear
7:35 AM 3.2 °F -10.3 °F -0.4 °F 85% 30.00 in 10.0 mi WNW 8.1 mph - N/A   Clear
7:55 AM 5.0 °F -9.1 °F -0.4 °F 78% 30.01 in 10.0 mi WNW 9.2 mph - N/A   Clear
8:15 AM 3.2 °F -6.2 °F -2.2 °F 78% 30.03 in 10.0 mi South 4.6 mph - N/A   Clear
8:35 AM 5.0 °F -5.6 °F -0.4 °F 78% 30.04 in 10.0 mi West 5.8 mph - N/A   Clear
8:55 AM 6.8 °F -5.9 °F -0.4 °F 72% 30.05 in 10.0 mi West 8.1 mph - N/A   Clear
9:15 AM 8.6 °F -7.0 °F 1.4 °F 73% 30.05 in 10.0 mi West 12.7 mph - N/A   Clear
9:35 AM 8.6 °F -7.7 °F 1.4 °F 73% 30.05 in 10.0 mi West 13.8 mph - N/A   Clear
9:55 AM 10.4 °F -3.3 °F 3.2 °F 73% 30.05 in 10.0 mi West 10.4 mph - N/A   Clear
10:15 AM 12.2 °F -1.8 °F 6.8 °F 79% 30.05 in 10.0 mi WNW 11.5 mph - N/A   Clear
10:35 AM 12.2 °F -0.2 °F 6.8 °F 79% 30.05 in 10.0 mi NW 9.2 mph - N/A   Clear
10:55 AM 14.0 °F 2.9 °F 6.8 °F 73% 30.05 in 10.0 mi NW 8.1 mph - N/A   Clear
11:15 AM 14.0 °F 2.0 °F 6.8 °F 73% 30.07 in 10.0 mi NW 9.2 mph - N/A   Clear
11:35 AM 15.8 °F 6.1 °F 6.8 °F 68% 30.07 in 10.0 mi NW 6.9 mph - N/A   Clear
11:55 AM 15.8 °F 7.2 °F 8.6 °F 73% 30.08 in 10.0 mi WNW 5.8 mph - N/A   Clear
12:15 PM 17.6 °F 7.3 °F 10.4 °F 73% 30.08 in 10.0 mi WNW 8.1 mph - N/A   Clear
12:35 PM 17.6 °F 6.4 °F 10.4 °F 73% 30.09 in 10.0 mi WNW 9.2 mph - N/A   Clear
12:55 PM 17.6 °F 6.4 °F 10.4 °F 73% 30.08 in 10.0 mi WNW 9.2 mph - N/A   Clear
1:15 PM 19.4 °F 8.6 °F 10.4 °F 68% 30.07 in 10.0 mi WNW 9.2 mph - N/A   Clear
1:35 PM 19.4 °F 8.6 °F 10.4 °F 68% 30.07 in 10.0 mi WNW 9.2 mph - N/A   Clear
1:55 PM 19.4 °F 9.5 °F 12.2 °F 74% 30.07 in 10.0 mi West 8.1 mph - N/A   Clear
2:15 PM 19.4 °F 9.5 °F 12.2 °F 74% 30.06 in 10.0 mi West 8.1 mph - N/A   Clear
2:35 PM 19.4 °F 9.5 °F 12.2 °F 74% 30.05 in 10.0 mi WNW 8.1 mph - N/A   Clear
2:55 PM 19.4 °F 10.4 °F 10.4 °F 68% 30.05 in 10.0 mi WNW 6.9 mph - N/A   Clear
3:15 PM 19.4 °F 10.4 °F 12.2 °F 74% 30.04 in 10.0 mi West 6.9 mph - N/A   Clear
3:35 PM 21.2 °F 12.6 °F 12.2 °F 68% 30.04 in 10.0 mi WNW 6.9 mph - N/A   Clear
3:55 PM 21.2 °F 12.6 °F 12.2 °F 68% 30.04 in 10.0 mi West 6.9 mph - N/A   Clear
4:15 PM 21.2 °F 13.6 °F 12.2 °F 68% 30.04 in 10.0 mi West 5.8 mph - N/A   Clear
4:35 PM 21.2 °F 13.6 °F 12.2 °F 68% 30.03 in 10.0 mi West 5.8 mph - N/A   Clear
4:55 PM 19.4 °F 10.4 °F 12.2 °F 74% 30.04 in 10.0 mi West 6.9 mph - N/A   Clear
5:15 PM 19.4 °F 12.8 °F 10.4 °F 68% 30.03 in 10.0 mi WSW 4.6 mph - N/A   Clear
5:35 PM 19.4 °F - 10.4 °F 68% 30.03 in 10.0 mi Calm Calm - N/A   Clear
5:55 PM 17.6 °F 12.3 °F 10.4 °F 73% 30.03 in 10.0 mi WSW 3.5 mph - N/A   Clear
6:15 PM 15.8 °F 8.6 °F 8.6 °F 73% 30.03 in 10.0 mi WSW 4.6 mph - N/A   Clear
6:35 PM 15.8 °F 7.2 °F 8.6 °F 73% 30.04 in 10.0 mi WSW 5.8 mph - N/A   Clear
6:55 PM 12.2 °F 2.9 °F 6.8 °F 79% 30.04 in 10.0 mi WSW 5.8 mph - N/A   Clear
7:15 PM 12.2 °F 1.7 °F 6.8 °F 79% 30.04 in 10.0 mi WSW 6.9 mph - N/A   Clear
7:35 PM 12.2 °F 1.7 °F 6.8 °F 79% 30.05 in 10.0 mi WSW 6.9 mph - N/A   Clear
7:55 PM 12.2 °F 1.7 °F 6.8 °F 79% 30.05 in 10.0 mi WSW 6.9 mph - N/A   Clear
8:15 PM 10.4 °F -0.4 °F 3.2 °F 73% 30.05 in 10.0 mi WSW 6.9 mph - N/A   Clear
8:35 PM 8.6 °F 0.1 °F 3.2 °F 79% 30.05 in 10.0 mi WSW 4.6 mph - N/A   Clear
8:55 PM 10.4 °F -0.4 °F 6.8 °F 85% 30.05 in 10.0 mi SW 6.9 mph - N/A   Clear
9:15 PM 10.4 °F -0.4 °F 5.0 °F 79% 30.05 in 10.0 mi WSW 6.9 mph - N/A   Clear
9:35 PM 8.6 °F -1.3 °F 3.2 °F 79% 30.05 in 10.0 mi WSW 5.8 mph - N/A   Clear
9:55 PM 3.2 °F -4.2 °F -2.2 °F 78% 30.05 in 10.0 mi WSW 3.5 mph - N/A   Clear
10:15 PM 3.2 °F -9.1 °F -2.2 °F 78% 30.05 in 10.0 mi WSW 6.9 mph - N/A   Clear
10:35 PM 5.0 °F -5.6 °F 1.4 °F 85% 30.05 in 10.0 mi WSW 5.8 mph - N/A   Clear
10:55 PM 6.8 °F -3.5 °F -0.4 °F 72% 30.05 in 10.0 mi WSW 5.8 mph - N/A   Clear
11:15 PM 3.2 °F -6.2 °F -0.4 °F 85% 30.04 in 10.0 mi WSW 4.6 mph - N/A   Clear
11:35 PM 6.8 °F -3.5 °F 1.4 °F 79% 30.04 in 10.0 mi WSW 5.8 mph - N/A   Clear
11:55 PM 8.6 °F -4.7 °F 1.4 °F 73% 30.03 in 10.0 mi SW 9.2 mph - N/A   Clear